User: anonymous   Login
Location: Bothell
(47.7630°N, 122.2040°W)
Time: 11:26:42
(UTC-07:00)
Language:

Oscar 16 - Orbit

View from above orbital plane
View from above orbital plane
View from above satellite
View from above satellite

Ground track
Ground track

The orbit data is extracted from the following two-line orbital elements,

1 20439U 90005D   18140.90864709 +.00000026 +00000-0 +26012-4 0  9992
2 20439 098.6466 083.6596 0009720 244.6615 161.3775 14.32721685479517
Epoch (UTC): 20 May 2018 21:48:27
Eccentricity: 0.0009720
inclination: 98.6466°
perigee height: 775 km
apogee height: 789 km
right ascension of ascending node: 83.6596°
argument of perigee: 244.6615°
revolutions per day: 14.32721685
mean anomaly at epoch: 161.3775°
orbit number at epoch: 47951

The dashed part of the orbit path shows where the satellite is in the earth's shadow,  

DLR